Change the Weather History Date:

Friday, October 12, 2012

  Actual Average (KHOT) Record (KHOT)
Temperature  
Mean Temperature 63 °F -  
Max Temperature 70 °F 79 °F 95 °F (1963)
Min Temperature 57 °F 52 °F 34 °F (1990)
Degree Days  
Heating Degree Days 2    
Growing Degree Days 13 (Base 50)    
Moisture  
Dew Point 61 °F    
Average Humidity 92    
Maximum Humidity 100    
Minimum Humidity 73    
Precipitation  
Precipitation 0.32 in - - ()
Sea Level Pressure  
Sea Level Pressure 30.19 in    
Wind  
Wind Speed 1 mph (NE)    
Max Wind Speed 7 mph    
Max Gust Speed -    
Visibility 5 miles    
Events Rain , Thunderstorm    
Averages and records for this station are not official NWS values.
T = Trace of Precipitation, MM = Missing Value Source: NWS Daily Summary

Daily Weather History Graph

Daily Weather History Graph

Search for Another Location

Airport or City:

Trip Planner

Search our weather history database for the weather conditions in past years. The results will help you decide how hot, cold, wet, or windy it might be!

Date:

Astronomy

Oct. 12, 2012 Rise Set
Actual Time 7:16 AM CDT 6:40 PM CDT
Civil Twilight 6:50 AM CDT 7:05 PM CDT
Nautical Twilight 6:21 AM CDT 7:35 PM CDT
Astronomical Twilight 5:52 AM CDT 8:04 PM CDT
Moon 4:06 AM CDT (10/12) 4:45 PM CDT (10/12)
Length of Visible Light 12h 15m
Length of Day
11h 24m
Waning Crescent, 10% of the Moon is Illuminated
Oct 12
Waning Crescent
Oct 15
New
Oct 21
First Quarter
Oct 29
Full
Nov 6
Last Quarter

Hourly Weather History & Observations

Time (CDT) Temp. Dew Point Humidity Pressure Visibility Wind Dir Wind Speed Gust Speed Precip Events Conditions
12:53 AM 57.9 °F 55.9 °F 93% 30.16 in 10.0 mi Calm Calm - N/A   Mostly Cloudy
1:53 AM 57.0 °F 55.0 °F 93% 30.16 in 10.0 mi Calm Calm - N/A   Partly Cloudy
3:53 AM 57.0 °F 55.0 °F 93% 30.15 in 10.0 mi Calm Calm - N/A   Mostly Cloudy
4:53 AM 57.9 °F 55.9 °F 93% 30.14 in 10.0 mi Calm Calm - N/A   Overcast
5:53 AM 59.0 °F 55.9 °F 90% 30.17 in 10.0 mi Calm Calm - N/A   Overcast
6:53 AM 60.1 °F 57.0 °F 90% 30.18 in 10.0 mi Calm Calm - N/A   Mostly Cloudy
7:53 AM 59.0 °F 57.0 °F 93% 30.18 in 10.0 mi Calm Calm - N/A   Clear
8:53 AM 63.0 °F 57.0 °F 81% 30.21 in 10.0 mi NNE 3.5 mph - N/A   Clear
9:48 AM 66.2 °F 60.8 °F 83% 30.26 in 10.0 mi NNE 6.9 mph - N/A   Overcast
9:53 AM 68.0 °F 61.0 °F 78% 30.24 in 10.0 mi ENE 5.8 mph - N/A   Overcast
10:35 AM 69.8 °F 60.8 °F 73% 30.26 in 10.0 mi Calm Calm - N/A   Overcast
11:53 AM 69.1 °F 60.1 °F 73% 30.25 in 10.0 mi Calm Calm - N/A   Overcast
12:53 PM 68.0 °F 61.0 °F 78% 30.24 in 10.0 mi Calm Calm - N/A   Overcast
1:53 PM 66.9 °F 61.0 °F 81% 30.25 in 10.0 mi Calm Calm - N/A   Overcast
2:09 PM 66.2 °F 62.6 °F 88% 30.25 in 5.0 mi NE 4.6 mph - 0.02 in Rain , Thunderstorm Rain
2:24 PM 66.2 °F 62.6 °F 88% 30.27 in 6.0 mi West 4.6 mph - 0.03 in Rain Light Rain
2:30 PM 66.2 °F 62.6 °F 88% 30.26 in 1.8 mi NNW 5.8 mph - 0.09 in Rain Heavy Rain
2:46 PM 64.4 °F 62.6 °F 94% 30.25 in 3.0 mi NE 4.6 mph - 0.16 in Rain Rain
2:53 PM 66.0 °F 63.0 °F 90% 30.24 in 3.0 mi Variable 3.5 mph - 0.18 in Rain Rain
3:32 PM 64.4 °F 64.4 °F 100% 30.25 in 1.8 mi Calm Calm - 0.10 in Rain Heavy Rain
3:42 PM 64.4 °F 62.6 °F 94% 30.25 in 3.0 mi Calm Calm - 0.11 in Rain Light Rain
3:53 PM 64.9 °F 64.0 °F 97% 30.22 in 6.0 mi Calm Calm - 0.11 in   Mostly Cloudy
4:44 PM 64.4 °F 62.6 °F 94% 30.18 in 7.0 mi Variable 5.8 mph - 0.03 in   Mostly Cloudy
4:53 PM 64.0 °F 63.0 °F 96% 30.17 in 8.0 mi SSE 4.6 mph - 0.03 in   Partly Cloudy
5:09 PM 64.4 °F 62.6 °F 94% 30.18 in 8.0 mi Variable 3.5 mph - N/A   Mostly Cloudy
5:53 PM 64.9 °F 63.0 °F 93% 30.17 in 7.0 mi Calm Calm - N/A   Mostly Cloudy
6:02 PM 64.4 °F 62.6 °F 94% 30.18 in 7.0 mi Calm Calm - N/A   Scattered Clouds
6:53 PM 64.0 °F 63.0 °F 96% 30.17 in 3.0 mi Calm Calm - N/A   Clear
7:09 PM 64.4 °F 62.6 °F 94% 30.18 in 1.8 mi Calm Calm - N/A   Clear
7:26 PM 62.6 °F 60.8 °F 94% 30.18 in 0.8 mi Calm Calm - N/A   Clear
7:34 PM 62.6 °F 60.8 °F 94% 30.17 in 1.0 mi Calm Calm - N/A   Clear
7:41 PM 62.6 °F 60.8 °F 94% 30.17 in 0.8 mi Calm Calm - N/A   Mist
7:48 PM 60.8 °F 60.8 °F 100% 30.17 in 1.0 mi ENE 3.5 mph - N/A   Mist
7:53 PM 63.0 °F 61.0 °F 93% 30.16 in 1.5 mi Calm Calm - N/A   Partly Cloudy
7:58 PM 62.6 °F 60.8 °F 94% 30.17 in 3.0 mi Calm Calm - N/A   Partly Cloudy
8:21 PM 60.8 °F 60.8 °F 100% 30.17 in 1.8 mi Calm Calm - N/A   Clear
8:29 PM 60.8 °F 60.8 °F 100% 30.17 in 2.0 mi Calm Calm - N/A   Clear
8:37 PM 60.8 °F 59.0 °F 94% 30.17 in 0.8 mi Calm Calm - N/A   Clear
9:06 PM 60.8 °F 60.8 °F 100% 30.17 in 1.2 mi Calm Calm - N/A   Partly Cloudy
9:16 PM 62.6 °F 60.8 °F 94% 30.17 in 2.5 mi Calm Calm - N/A   Partly Cloudy
9:24 PM 62.6 °F 60.8 °F 94% 30.17 in 4.0 mi Calm Calm - N/A   Partly Cloudy
9:46 PM 62.6 °F 62.6 °F 100% 30.17 in 5.0 mi Variable 3.5 mph - N/A   Mostly Cloudy
9:53 PM 63.0 °F 62.1 °F 97% 30.15 in 4.0 mi Variable 3.5 mph - N/A   Mostly Cloudy
10:34 PM 62.6 °F 62.6 °F 100% 30.17 in 2.0 mi Variable 5.8 mph - N/A   Overcast
10:41 PM 62.6 °F 62.6 °F 100% 30.17 in 1.2 mi Variable 6.9 mph - N/A   Overcast
10:53 PM 63.0 °F 62.1 °F 97% 30.16 in 1.0 mi Variable 3.5 mph - N/A   Overcast
11:53 PM 63.0 °F 62.1 °F 97% 30.16 in 1.2 mi Variable 5.8 mph - N/A   Overcast